This is the latest recevied weather packets stored in our database for station/object WY7EM. If no packets are shown the sender has not sent any weather packets the latest 10 day(s).
| Time | Temp. | Humidity | Pressure | Rain* | Wind** | Luminosity | Snow |
|---|---|---|---|---|---|---|---|
| 1777860646 | 21.67° C | 30% | 1010.1 hPa | 0 mm | - | 2 W/m² | - |
| 1777860343 | 21.67° C | 30% | 1009.8 hPa | 0 mm | - | 4 W/m² | - |
| 1777860040 | 21.67° C | 30% | 1009.8 hPa | 0 mm | - | 7 W/m² | - |
| 1777859736 | 22.22° C | 29% | 1009.9 hPa | 0 mm | - | 9 W/m² | - |
| 1777859432 | 22.22° C | 28% | 1010.1 hPa | 0 mm | - | 13 W/m² | - |
| 1777859128 | 22.22° C | 29% | 1009.8 hPa | 0 mm | - | 21 W/m² | - |
| 1777858826 | 22.78° C | 28% | 1009.9 hPa | 0 mm | - | 25 W/m² | - |
| 1777858524 | 22.78° C | 28% | 1009.8 hPa | 0 mm | - | 36 W/m² | - |
| 1777858220 | 22.78° C | 27% | 1009.8 hPa | 0 mm | - | 51 W/m² | - |
| 1777857918 | 22.78° C | 28% | 1009.7 hPa | 0 mm | - | 51 W/m² | - |
| 1777857616 | 23.33° C | 27% | 1009.7 hPa | 0 mm | - | 59 W/m² | - |
| 1777857312 | 22.78° C | 27% | 1009.7 hPa | 0 mm | - | 93 W/m² | - |
| 1777857008 | 22.78° C | 28% | 1009.8 hPa | 0 mm | - | 93 W/m² | - |
| 1777856704 | 22.78° C | 27% | 1009.9 hPa | 0 mm | - | 79 W/m² | - |
| 1777856400 | 22.78° C | 28% | 1010.2 hPa | 0 mm | - | 106 W/m² | - |
| 1777856097 | 23.33° C | 27% | 1010.1 hPa | 0 mm | - | 88 W/m² | - |
| 1777855794 | 22.78° C | 27% | 1010.3 hPa | 0 mm | - | 186 W/m² | - |
| 1777855492 | 22.78° C | 28% | 1010.2 hPa | 0 mm | - | 84 W/m² | - |
| 1777855189 | 22.22° C | 28% | 1010.4 hPa | 0 mm | - | 75 W/m² | - |
| 1777854885 | 22.22° C | 29% | 1010.4 hPa | 0 mm | - | 64 W/m² | - |
| 1777854582 | 22.22° C | 29% | 1010.6 hPa | 0 mm | - | 57 W/m² | - |
| 1777854279 | 22.22° C | 29% | 1010.5 hPa | 0 mm | - | 61 W/m² | - |
| 1777853976 | 22.22° C | 29% | 1010.5 hPa | 0 mm | - | 66 W/m² | - |
| 1777853673 | 22.78° C | 29% | 1010.7 hPa | 0 mm | - | 73 W/m² | - |
| 1777853370 | 22.78° C | 27% | 1010.8 hPa | 0 mm | - | 96 W/m² | - |
* Rain latest hour (hover to see other rain measurements)
** Current wind speed in m/s (hover to see current wind gust speed)